FW8891 Weather Reports


Display with metric or nautical units.
time (UTC)temp
F
wind
direction
speed
MPH
gust
MPH
rain 1hr
in
rain 24hr
in
rain mn
in
humidity
%
barometer
mb
20260902202059 98 175 6.0 11.0 0.00 0.00 0.00 36 1013.8
20260902201603 99 123 5.0 13.0 0.00 0.00 0.00 35 1013.9
20260902201102 99 224 4.0 13.0 0.00 0.00 0.00 36 1013.9
20260902200558 99 120 3.0 11.0 0.00 0.00 0.00 36 1014.1
20260902200105 99 129 2.0 10.0 0.00 0.00 0.00 36 1014.2
20260902195559 98 193 4.0 11.0 0.00 0.00 0.00 36 1014.2
20260902195059 98 156 4.0 11.0 0.00 0.00 0.00 37 1014.3
20260902194603 97 117 4.0 12.0 0.00 0.00 0.00 36 1014.3
20260902194058 97 113 6.0 12.0 0.00 0.00 0.00 36 1014.5
20260902193559 97 137 5.0 12.0 0.00 0.00 0.00 37 1014.5
20260902193105 97 171 5.0 12.0 0.00 0.00 0.00 38 1014.6
20260902192601 97 101 6.0 12.0 0.00 0.00 0.00 37 1014.7
20260902192058 98 187 4.0 12.0 0.00 0.00 0.00 37 1014.7
20260902191604 98 143 6.0 12.0 0.00 0.00 0.00 37 1014.9
20260902191058 97 139 4.0 10.0 0.00 0.00 0.00 38 1014.9
20260902190558 98 92 5.0 9.0 0.00 0.00 0.00 36 1015.1
20260902185559 97 165 4.0 11.0 0.00 0.00 0.00 37 1015.2
20260902185059 97 153 3.0 10.0 0.00 0.00 0.00 37 1015.2
20260902184656 97 162 5.0 10.0 0.00 0.00 0.00 37 1015.3
20260902184058 97 121 5.0 11.0 0.00 0.00 0.00 37 1015.3
20260902183559 96 129 5.0 11.0 0.00 0.00 0.00 38 1015.4
20260902183113 96 153 6.0 10.0 0.00 0.00 0.00 38 1015.4
20260902182558 97 182 3.0 11.0 0.00 0.00 0.00 38 1015.5
20260902182059 96 154 5.0 11.0 0.00 0.00 0.00 37 1015.6
20260902181613 96 203 7.0 11.0 0.00 0.00 0.00 37 1015.7
20260902181059 95 137 5.0 12.0 0.00 0.00 0.00 38 1015.8
20260902180558 95 193 7.0 12.0 0.00 0.00 0.00 38 1015.8
20260902180104 94 229 4.0 10.0 0.00 0.00 0.00 39 1015.8
20260902175559 94 141 6.0 12.0 0.00 0.00 0.00 39 1015.8
20260902175059 93 132 5.0 12.0 0.00 0.00 0.00 38 1015.9
20260902174608 93 150 7.0 12.0 0.00 0.00 0.00 38 1015.9
20260902174059 94 150 8.0 12.0 0.00 0.00 0.00 37 1015.9
20260902173559 95 158 6.0 12.0 0.00 0.00 0.00 39 1015.9
20260902173119 95 200 5.0 12.0 0.00 0.00 0.00 38 1015.8
20260902172558 94 129 6.0 12.0 0.00 0.00 0.00 39 1015.9
20260902172058 94 108 5.0 11.0 0.00 0.00 0.00 39 1015.9
20260902171607 94 170 6.0 14.0 0.00 0.00 0.00 38 1015.8
20260902171100 94 119 6.0 14.0 0.00 0.00 0.00 38 1015.9
20260902170559 94 152 6.0 14.0 0.00 0.00 0.00 39 1015.9
20260902170100 94 166 5.0 10.0 0.00 0.00 0.00 41 1015.9
20260902165558 93 185 6.0 10.0 0.00 0.00 0.00 40 1016.0
20260902165059 93 123 5.0 11.0 0.00 0.00 0.00 40 1015.9
20260902164607 93 206 6.0 11.0 0.00 0.00 0.00 39 1015.9
20260902164059 93 187 5.0 9.0 0.00 0.00 0.00 40 1015.9
20260902163559 93 158 3.0 9.0 0.00 0.00 0.00 41 1015.8
20260902163107 93 214 4.0 9.0 0.00 0.00 0.00 41 1015.9
20260902162559 92 141 4.0 9.0 0.00 0.00 0.00 42 1015.9
20260902162059 92 149 3.0 9.0 0.00 0.00 0.00 41 1015.9
20260902161602 92 158 5.0 9.0 0.00 0.00 0.00 43 1015.8
20260902161101 92 129 6.0 9.0 0.00 0.00 0.00 42 1015.9
20260902160558 92 188 4.0 9.0 0.00 0.00 0.00 43 1015.9
20260902160104 91 148 5.0 9.0 0.00 0.00 0.00 45 1015.8
20260902155559 91 109 5.0 9.0 0.00 0.00 0.00 44 1015.8
20260902155058 91 200 4.0 10.0 0.00 0.00 0.00 46 1015.8
20260902154605 91 156 3.0 10.0 0.00 0.00 0.00 47 1015.8
20260902154058 90 191 4.0 10.0 0.00 0.00 0.00 48 1015.7
20260902153558 89 214 3.0 8.0 0.00 0.00 0.00 49 1015.7
20260902153108 89 115 4.0 8.0 0.00 0.00 0.00 50 1015.7
20260902152602 89 138 3.0 7.0 0.00 0.00 0.00 49 1015.6
20260902152059 90 113 3.0 7.0 0.00 0.00 0.00 49 1015.6
20260902151607 91 159 2.0 7.0 0.00 0.00 0.00 48 1015.6
20260902151058 91 221 3.0 7.0 0.00 0.00 0.00 48 1015.6
20260902150558 91 257 3.0 5.0 0.00 0.00 0.00 47 1015.6
20260902150105 90 165 2.0 6.0 0.00 0.00 0.00 48 1015.5
20260902145558 90 190 2.0 6.0 0.00 0.00 0.00 49 1015.5
20260902145058 90 178 2.0 4.0 0.00 0.00 0.00 49 1015.5
20260902144603 90 137 0.0 2.0 0.00 0.00 0.00 50 1015.5
20260902144059 89 0 1.0 3.0 0.00 0.00 0.00 51 1015.5
20260902143559 88 122 0.0 3.0 0.00 0.00 0.00 51 1015.4
20260902143103 88 136 2.0 3.0 0.00 0.00 0.00 52 1015.4
20260902142558 88 150 1.0 3.0 0.00 0.00 0.00 52 1015.3
20260902142059 88 127 1.0 3.0 0.00 0.00 0.00 52 1015.3
20260902141603 89 168 1.0 3.0 0.00 0.00 0.00 52 1015.2
20260902141058 89 134 0.0 1.0 0.00 0.00 0.00 51 1015.2
20260902140559 89 0 0.0 0.0 0.00 0.00 0.00 52 1015.2
20260902140106 88 0 0.0 0.0 0.00 0.00 0.00 54 1015.2
20260902135600 87 0 0.0 0.0 0.00 0.00 0.00 55 1015.1
20260902135058 86 0 0.0 0.0 0.00 0.00 0.00 56 1015.0
20260902134614 85 0 0.0 0.0 0.00 0.00 0.00 57 1014.9
20260902134058 84 0 0.0 1.0 0.00 0.00 0.00 58 1014.7
20260902133558 83 0 0.0 1.0 0.00 0.00 0.00 59 1014.7
20260902133112 83 0 0.0 1.0 0.00 0.00 0.00 59 1014.6
20260902132558 82 0 0.0 1.0 0.00 0.00 0.00 60 1014.5
20260902132102 82 0 0.0 1.0 0.00 0.00 0.00 60 1014.5
20260902131604 82 78 0.0 1.0 0.00 0.00 0.00 60 1014.5
20260902131058 82 78 0.0 2.0 0.00 0.00 0.00 60 1014.4
20260902130557 82 0 1.0 2.0 0.00 0.00 0.00 60 1014.4
20260902130113 82 86 0.0 1.0 0.00 0.00 0.00 60 1014.4
20260902125559 81 0 0.0 0.0 0.00 0.00 0.00 60 1014.3
20260902125059 81 0 0.0 0.0 0.00 0.00 0.00 60 1014.2
20260902124605 82 0 0.0 0.0 0.00 0.00 0.00 59 1014.2
20260902124058 82 0 0.0 0.0 0.00 0.00 0.00 59 1014.1
20260902123558 82 0 0.0 0.0 0.00 0.00 0.00 59 1014.1
20260902123112 82 0 0.0 0.0 0.00 0.00 0.00 58 1014.0
20260902122559 82 0 0.0 0.0 0.00 0.00 0.00 58 1014.0
20260902122058 82 0 0.0 0.0 0.00 0.00 0.00 58 1013.9
20260902121604 83 0 0.0 1.0 0.00 0.00 0.00 57 1013.9
20260902121059 83 0 0.0 1.0 0.00 0.00 0.00 56 1013.8
20260902120601 83 91 0.0 1.0 0.00 0.00 0.00 56 1013.8
20260902115601 83 0 0.0 1.0 0.00 0.00 0.00 56 1013.8
20260902115059 84 91 0.0 0.0 0.00 0.00 0.00 56 1013.7
20260902114604 84 0 0.0 0.0 0.00 0.00 0.00 56 1013.7
20260902114100 84 0 0.0 1.0 0.00 0.00 0.00 56 1013.7
20260902113559 84 0 0.0 1.0 0.00 0.00 0.00 55 1013.8
20260902113104 84 0 0.0 1.0 0.00 0.00 0.00 55 1013.7
20260902112559 84 122 0.0 0.0 0.00 0.00 0.00 55 1013.7
20260902112059 84 0 0.0 0.0 0.00 0.00 0.00 55 1013.6
20260902111604 84 0 0.0 0.0 0.00 0.00 0.00 54 1013.6
20260902111059 85 0 0.0 0.0 0.00 0.00 0.00 54 1013.6
20260902110559 85 0 0.0 0.0 0.00 0.00 0.00 54 1013.5
20260902110106 85 0 0.0 2.0 0.00 0.00 0.00 53 1013.5
20260902105558 85 0 0.0 2.0 0.00 0.00 0.00 53 1013.6
20260902105100 86 125 0.0 1.0 0.00 0.00 0.00 52 1013.6
20260902104621 86 255 0.0 1.0 0.00 0.00 0.00 52 1013.6
20260902104059 86 0 0.0 2.0 0.00 0.00 0.00 52 1013.6
20260902103600 86 0 0.0 2.0 0.00 0.00 0.00 51 1013.6
20260902103119 86 270 0.0 3.0 0.00 0.00 0.00 51 1013.6
20260902102600 87 0 0.0 4.0 0.00 0.00 0.00 51 1013.6
20260902102100 87 275 1.0 4.0 0.00 0.00 0.00 51 1013.6
20260902101609 87 278 0.0 4.0 0.00 0.00 0.00 51 1013.7
20260902101100 87 269 1.0 4.0 0.00 0.00 0.00 51 1013.7
20260902100600 87 275 2.0 4.0 0.00 0.00 0.00 50 1013.7
20260902095602 88 231 3.0 5.0 0.00 0.00 0.00 50 1013.5
20260902095100 88 274 2.0 6.0 0.00 0.00 0.00 50 1013.5
20260902094605 88 290 3.0 6.0 0.00 0.00 0.00 50 1013.5
20260902094100 88 283 2.0 5.0 0.00 0.00 0.00 49 1013.6
20260902093559 88 247 3.0 5.0 0.00 0.00 0.00 49 1013.6
20260902093101 88 258 2.0 5.0 0.00 0.00 0.00 49 1013.6
20260902092603 88 238 3.0 5.0 0.00 0.00 0.00 49 1013.6
20260902092103 88 260 2.0 4.0 0.00 0.00 0.00 49 1013.6
20260902091601 88 273 1.0 4.0 0.00 0.00 0.00 49 1013.6
20260902091059 88 271 1.0 4.0 0.00 0.00 0.00 49 1013.6
20260902090600 88 297 1.0 2.0 0.00 0.00 0.00 49 1013.6
20260902090108 88 257 1.0 2.0 0.00 0.00 0.00 49 1013.6
20260902085600 88 257 0.0 2.0 0.00 0.00 0.00 49 1013.6
20260902085100 88 201 1.0 3.0 0.00 0.00 0.00 48 1013.6
20260902084603 89 184 2.0 4.0 0.00 0.00 0.00 48 1013.6
20260902084101 89 199 1.0 7.0 0.00 0.00 0.00 48 1013.6
20260902083600 89 200 2.0 7.0 0.00 0.00 0.00 48 1013.6
20260902083116 89 217 3.0 6.0 0.00 0.00 0.00 48 1013.6
20260902082600 89 206 2.0 6.0 0.00 0.00 0.00 48 1013.6
20260902082100 89 228 3.0 6.0 0.00 0.00 0.00 48 1013.7
20260902081606 89 153 3.0 4.0 0.00 0.00 0.00 48 1013.5
20260902081059 89 206 2.0 5.0 0.00 0.00 0.00 48 1013.6
20260902080600 89 189 2.0 8.0 0.00 0.00 0.00 47 1013.5
20260902080118 89 178 2.0 8.0 0.00 0.00 0.00 48 1013.5
20260902075603 88 129 2.0 4.0 0.00 0.00 0.00 48 1013.5
20260902075100 88 279 0.0 2.0 0.00 0.00 0.00 49 1013.5
20260902074606 88 204 1.0 2.0 0.00 0.00 0.00 49 1013.4
20260902074058 88 158 0.0 2.0 0.00 0.00 0.00 49 1013.4
20260902073558 88 163 0.0 3.0 0.00 0.00 0.00 49 1013.4
20260902073110 88 127 1.0 5.0 0.00 0.00 0.00 49 1013.4
20260902072601 88 137 1.0 5.0 0.00 0.00 0.00 49 1013.4
20260902072059 88 162 2.0 5.0 0.00 0.00 0.00 48 1013.4
20260902071626 88 150 1.0 3.0 0.00 0.00 0.00 48 1013.4
20260902071058 88 152 1.0 2.0 0.00 0.00 0.00 48 1013.4
20260902070558 89 167 1.0 3.0 0.00 0.00 0.00 48 1013.3
20260902070123 89 181 1.0 4.0 0.00 0.00 0.00 48 1013.2
20260902065558 89 154 2.0 4.0 0.00 0.00 0.00 48 1013.2
20260902065100 89 141 2.0 4.0 0.00 0.00 0.00 48 1013.2
20260902064607 89 127 1.0 4.0 0.00 0.00 0.00 47 1013.1
20260902064102 90 128 2.0 5.0 0.00 0.00 0.00 47 1013.2
20260902063559 90 129 3.0 5.0 0.00 0.00 0.00 47 1013.2
20260902063113 90 134 3.0 7.0 0.00 0.00 0.00 46 1013.2
20260902062559 90 148 4.0 7.0 0.00 0.00 0.00 46 1013.2
20260902062058 90 169 3.0 6.0 0.00 0.00 0.00 46 1013.2
20260902061625 90 143 2.0 5.0 0.00 0.00 0.00 47 1013.1
20260902061105 90 131 2.0 5.0 0.00 0.00 0.00 47 1013.2
20260902060559 90 105 3.0 5.0 0.00 0.00 0.00 47 1013.2
20260902060110 90 141 3.0 5.0 0.00 0.00 0.00 47 1013.2
20260902055559 90 172 2.0 4.0 0.00 0.00 0.00 48 1013.3
20260902055059 90 150 2.0 4.0 0.00 0.00 0.00 48 1013.3
20260902054602 90 160 2.0 4.0 0.00 0.00 0.00 48 1013.3
20260902054058 90 160 0.0 1.0 0.00 0.00 0.00 48 1013.3
20260902053559 91 137 0.0 1.0 0.00 0.00 0.00 47 1013.3
20260902053107 91 136 0.0 2.0 0.00 0.00 0.00 46 1013.3
20260902052603 91 150 0.0 2.0 0.00 0.00 0.00 46 1013.3
20260902052100 91 160 0.0 1.0 0.00 0.00 0.00 45 1013.4
20260902051615 91 0 0.0 1.0 0.00 0.00 0.00 46 1013.4
20260902051058 91 0 0.0 3.0 0.00 0.00 0.00 46 1013.4
20260902050603 91 281 0.0 3.0 0.00 0.00 0.00 46 1013.4
20260902045559 91 193 1.0 3.0 0.00 0.00 0.00 46 1013.4
20260902045059 91 173 2.0 3.0 0.00 0.00 0.00 46 1013.3
20260902044636 91 148 1.0 3.0 0.00 0.00 0.00 46 1013.2
20260902044059 92 162 0.0 1.0 0.00 0.00 0.00 46 1013.1
20260902043558 92 0 0.0 0.0 0.00 0.00 0.00 46 1013.0
20260902043105 92 0 0.0 0.0 0.00 0.00 0.00 45 1013.0
20260902042558 92 0 0.0 0.0 0.00 0.00 0.00 45 1012.9
20260902042058 92 0 0.0 0.0 0.00 0.00 0.00 45 1012.9
20260902041604 92 0 0.0 0.0 0.00 0.00 0.00 45 1013.0
20260902041058 92 0 0.0 0.0 0.00 0.00 0.00 44 1012.9
20260902040558 92 126 0.0 0.0 0.00 0.00 0.00 44 1012.8
20260902040106 92 0 0.0 2.0 0.00 0.00 0.00 43 1012.7
20260902035558 92 0 0.0 2.0 0.00 0.00 0.00 43 1012.7
20260902035059 93 117 0.0 2.0 0.00 0.00 0.00 43 1012.5
20260902034603 93 0 0.0 0.0 0.00 0.00 0.00 43 1012.5
20260902034058 93 0 0.0 0.0 0.00 0.00 0.00 43 1012.4
20260902033558 93 0 0.0 1.0 0.00 0.00 0.00 43 1012.3
20260902033104 93 0 0.0 1.0 0.00 0.00 0.00 42 1012.2
20260902032602 93 144 0.0 1.0 0.00 0.00 0.00 42 1012.1
20260902032058 93 151 0.0 1.0 0.00 0.00 0.00 42 1012.0
20260902031617 93 151 1.0 1.0 0.00 0.00 0.00 42 1012.0
20260902031059 93 175 0.0 1.0 0.00 0.00 0.00 42 1011.9
20260902030602 93 0 0.0 1.0 0.00 0.00 0.00 41 1011.9
20260902030108 94 218 0.0 1.0 0.00 0.00 0.00 41 1011.7
20260902025559 94 0 0.0 2.0 0.00 0.00 0.00 41 1011.7
20260902025059 94 236 0.0 2.0 0.00 0.00 0.00 41 1011.6
20260902024605 94 235 0.0 2.0 0.00 0.00 0.00 41 1011.6
20260902024058 94 0 0.0 1.0 0.00 0.00 0.00 41 1011.6
20260902023558 94 0 0.0 2.0 0.00 0.00 0.00 40 1011.6
20260902023107 94 155 0.0 2.0 0.00 0.00 0.00 41 1011.6
20260902022602 94 167 1.0 2.0 0.00 0.00 0.00 40 1011.5
20260902022058 94 0 0.0 0.0 0.00 0.00 0.00 40 1011.5
20260902021603 95 0 0.0 0.0 0.00 0.00 0.00 40 1011.5
20260902021058 95 0 0.0 0.0 0.00 0.00 0.00 40 1011.4
20260902020600 95 0 0.0 2.0 0.00 0.00 0.00 40 1011.4
20260902015603 96 0 0.0 5.0 0.00 0.00 0.00 39 1011.5
20260902015059 96 157 2.0 5.0 0.00 0.00 0.00 39 1011.4
20260902014600 96 124 0.0 3.0 0.00 0.00 0.00 39 1011.5
20260902014058 96 128 1.0 5.0 0.00 0.00 0.00 38 1011.4
20260902013558 96 128 2.0 5.0 0.00 0.00 0.00 38 1011.4
20260902013110 97 151 2.0 5.0 0.00 0.00 0.00 38 1011.4
20260902012558 97 184 0.0 4.0 0.00 0.00 0.00 38 1011.3
20260902012058 98 170 2.0 5.0 0.00 0.00 0.00 38 1011.4
20260902011606 98 0 2.0 5.0 0.00 0.00 0.00 37 1011.3
20260902011059 99 217 2.0 5.0 0.00 0.00 0.00 36 1011.3
20260902010558 99 122 0.0 1.0 0.00 0.00 0.00 36 1011.4
20260902010106 100 0 0.0 2.0 0.00 0.00 0.00 36 1011.5
20260902005558 100 0 0.0 3.0 0.00 0.00 0.00 37 1011.6
20260902005059 99 232 0.0 4.0 0.00 0.00 0.00 36 1011.5
20260902004604 99 195 2.0 4.0 0.00 0.00 0.00 36 1011.6
20260902004100 99 184 0.0 2.0 0.00 0.00 0.00 36 1011.7
20260902003559 99 224 1.0 7.0 0.00 0.00 0.00 37 1011.7
20260902003102 98 193 2.0 7.0 0.00 0.00 0.00 37 1011.8
20260902002601 99 222 0.0 5.0 0.00 0.00 0.00 36 1011.8
20260902002058 99 202 3.0 6.0 0.00 0.00 0.00 36 1011.8
20260902001605 99 160 1.0 6.0 0.00 0.00 0.00 36 1011.8
20260902001059 99 169 2.0 7.0 0.00 0.00 0.00 36 1011.9
20260902000558 100 184 3.0 7.0 0.00 0.00 0.00 35 1011.9
20260902000105 100 0 3.0 7.0 0.00 0.00 0.00 35 1011.8
20260901235558 100 226 4.0 8.0 0.00 0.00 0.00 36 1011.9
20260901235059 101 110 2.0 8.0 0.00 0.00 0.00 35 1011.9
20260901234609 101 181 3.0 8.0 0.00 0.00 0.00 36 1012.0
20260901234104 100 211 3.0 8.0 0.00 0.00 0.00 36 1012.0
20260901233559 101 189 5.0 8.0 0.00 0.00 0.00 36 1012.1
20260901233105 101 194 2.0 6.0 0.00 0.00 0.00 36 1012.1
20260901232558 100 0 1.0 4.0 0.00 0.00 0.00 37 1012.1
20260901232102 100 131 2.0 8.0 0.00 0.00 0.00 38 1012.1
20260901231616 100 96 2.0 8.0 0.00 0.00 0.00 37 1012.3
20260901231058 100 212 3.0 7.0 0.00 0.00 0.00 37 1012.2
20260901230558 99 165 1.0 7.0 0.00 0.00 0.00 38 1012.3
20260901230110 99 134 3.0 8.0 0.00 0.00 0.00 39 1012.3
20260901225558 98 176 3.0 8.0 0.00 0.00 0.00 39 1012.4
20260901225059 98 113 1.0 4.0 0.00 0.00 0.00 39 1012.5
20260901224605 98 105 1.0 4.0 0.00 0.00 0.00 40 1012.5
20260901224100 98 59 1.0 5.0 0.00 0.00 0.00 39 1012.5
20260901223604 99 58 2.0 10.0 0.00 0.00 0.00 39 1012.6
20260901223106 99 122 4.0 10.0 0.00 0.00 0.00 39 1012.7
20260901222602 99 72 4.0 9.0 0.00 0.00 0.00 39 1012.7
20260901222058 100 203 4.0 8.0 0.00 0.00 0.00 39 1012.7
20260901221612 99 197 2.0 10.0 0.00 0.00 0.00 40 1012.8
20260901221059 98 94 5.0 10.0 0.00 0.00 0.00 41 1012.9
20260901220603 98 115 5.0 9.0 0.00 0.00 0.00 40 1012.9
20260901220104 99 163 5.0 9.0 0.00 0.00 0.00 39 1013.0
20260901215559 100 99 5.0 9.0 0.00 0.00 0.00 38 1013.1
20260901215058 99 309 1.0 5.0 0.00 0.00 0.00 39 1013.2
20260901214623 100 84 1.0 8.0 0.00 0.00 0.00 38 1013.2
20260901214058 100 156 3.0 10.0 0.00 0.00 0.00 38 1013.4
20260901213558 99 143 5.0 10.0 0.00 0.00 0.00 39 1013.5
20260901213107 97 134 4.0 9.0 0.00 0.00 0.00 41 1013.5
20260901212558 97 0 3.0 7.0 0.00 0.00 0.00 41 1013.6
20260901212058 98 86 3.0 7.0 0.00 0.00 0.00 41 1013.7
20260901211603 98 100 3.0 9.0 0.00 0.00 0.00 41 1013.7
20260901211059 97 115 5.0 9.0 0.00 0.00 0.00 42 1013.9
20260901210600 98 144 3.0 10.0 0.00 0.00 0.00 43 1013.9
20260901205559 96 126 5.0 9.0 0.00 0.00 0.00 42 1014.0
20260901205058 96 158 2.0 7.0 0.00 0.00 0.00 43 1014.2
20260901204607 97 86 4.0 7.0 0.00 0.00 0.00 42 1014.2
20260901204058 97 118 2.0 6.0 0.00 0.00 0.00 42 1014.3
20260901203602 97 147 3.0 10.0 0.00 0.00 0.00 43 1014.4
20260901203102 98 226 5.0 10.0 0.00 0.00 0.00 43 1014.4
20260901202600 96 167 4.0 13.0 0.00 0.00 0.00 44 1014.5